H1 CPF 2 NER 2023 2 11 9 042 01 glonass137 H2 1705501 9137 42939 2023 2 11 0 0 0 2023 2 14 23 45 0 900 1 1 0 0 0 1 H9 10 0 59986 0.00000 0 9053465.688 -16811693.319 -16902560.766 10 0 59986 900.00000 0 8943921.121 -14604048.203 -18895535.278 10 0 59986 1800.00000 0 9003733.616 -12171724.178 -20521222.443 10 0 59986 2700.00000 0 9257554.245 -9575504.053 -21748065.545 10 0 59986 3600.00000 0 9718778.269 -6881146.279 -22552268.256 10 0 59986 4500.00000 0 10388854.590 -4156860.956 -22918253.036 10 0 59986 5400.00000 0 11257114.240 -1470693.468 -22838959.471 10 0 59986 6300.00000 0 12301125.295 1112075.983 -22315977.259 10 0 59986 7200.00000 0 13487559.549 3531409.533 -21359511.657 10 0 59986 8100.00000 0 14773534.781 5734763.420 -19988182.297 10 0 59986 9000.00000 0 16108376.582 7679021.831 -18228659.418 10 0 59986 9900.00000 0 17435726.041 9332033.504 -16115144.480 10 0 59986 10800.00000 0 18695905.083 10673688.417 -13688705.164 10 0 59986 11700.00000 0 19828440.362 11696491.044 -10996477.413 10 0 59986 12600.00000 0 20774639.793 12405607.624 -8090749.913 10 0 59986 13500.00000 0 21480113.500 12818386.917 -5027948.610 10 0 59986 14400.00000 0 21897133.137 12963375.917 -1867540.989 10 0 59986 15300.00000 0 21986730.201 12878873.148 1329118.528 10 0 59986 16200.00000 0 21720444.858 12611081.584 4499979.514 10 0 59986 17100.00000 0 21081651.422 12211939.959 7583499.494 10 0 59986 18000.00000 0 20066404.380 11736724.712 10519837.365 10 0 59986 18900.00000 0 18683768.966 11241524.312 13252013.010 10 0 59986 19800.00000 0 16955621.878 10780692.929 15727010.661 10 0 59986 20700.00000 0 14915929.850 10404391.094 17896804.696 10 0 59986 21600.00000 0 12609535.570 10156317.196 19719288.312 10 0 59986 22500.00000 0 10090500.822 10071725.450 21159087.473 10 0 59986 23400.00000 0 7420075.076 10175813.901 22188244.805 10 0 59986 24300.00000 0 4664373.156 10482550.420 22786760.657 10 0 59986 25200.00000 0 1891857.511 10993986.348 22942981.221 10 0 59986 26100.00000 0 -829271.295 11700087.091 22653826.391 10 0 59986 27000.00000 0 -3433668.555 12579087.381 21924852.963 10 0 59986 27900.00000 0 -5861317.147 13598357.080 20770151.701 10 0 59986 28800.00000 0 -8059775.219 14715742.040 19212079.835 10 0 59986 29700.00000 0 -9986107.228 15881324.570 17280833.518 10 0 59986 30600.00000 0 -11608418.696 17039530.359 15013867.821 10 0 59986 31500.00000 0 -12906931.348 18131493.890 12455174.754 10 0 59986 32400.00000 0 -13874554.337 19097583.222 9654432.709 10 0 59986 33300.00000 0 -14516928.305 19879977.909 6666043.322 10 0 59986 34200.00000 0 -14851941.032 20425191.223 3548074.284 10 0 59986 35100.00000 0 -14908735.791 20686429.817 361128.690 10 0 59986 36000.00000 0 -14726254.933 20625690.576 -2832836.798 10 0 59986 36900.00000 0 -14351380.990 20215505.250 -5971721.401 10 0 59986 37800.00000 0 -13836754.718 19440258.334 -8994493.082 10 0 59986 38700.00000 0 -13238363.200 18297021.616 -11842380.501 10 0 59986 39600.00000 0 -12613000.896 16795869.327 -14460020.161 10 0 59986 40500.00000 0 -12015711.750 14959659.812 -16796535.900 10 0 59986 41400.00000 0 -11497321.162 12823292.158 -18806529.438 10 0 59986 42300.00000 0 -11102162.552 10432468.374 -20450962.574 10 0 59986 43200.00000 0 -10866094.795 7842012.433 -21697914.076 10 0 59986 44100.00000 0 -10814894.279 5113815.879 -22523196.884 10 0 59986 45000.00000 0 -10963089.336 2314495.298 -22910824.097 10 0 59986 45900.00000 0 -11313286.035 -487141.349 -22853315.247 10 0 59986 46800.00000 0 -11856013.550 -3222714.710 -22351837.385 10 0 59986 47700.00000 0 -12570095.481 -5826872.123 -21416178.671 10 0 59986 48600.00000 0 -13423531.419 -8239756.648 -20064555.237 10 0 59986 49500.00000 0 -14374851.666 -10409245.416 -18323255.182 10 0 59986 50400.00000 0 -15374888.166 -12292865.217 -16226126.578 10 0 59986 51300.00000 0 -16368887.233 -13859306.795 -13813919.303 10 0 59986 52200.00000 0 -17298875.286 -15089475.938 -11133493.257 10 0 59986 53100.00000 0 -18106178.023 -15977038.792 -8236908.195 10 0 59986 54000.00000 0 -18733986.978 -16528439.890 -5180412.708 10 0 59986 54900.00000 0 -19129865.264 -16762393.446 -2023351.937 10 0 59986 55800.00000 0 -19248086.718 -16708870.500 1172984.662 10 0 59986 56700.00000 0 -19051709.656 -16407625.622 4346553.004 10 0 59986 57600.00000 0 -18514297.507 -15906326.188 7435758.228 10 0 59986 58500.00000 0 -17621213.410 -15258363.820 10380649.150 10 0 59986 59400.00000 0 -16370433.789 -14520440.891 13124080.028 10 0 59986 60300.00000 0 -14772846.043 -13750034.191 15612817.120 10 0 59986 61200.00000 0 -12852017.101 -13002842.929 17798568.695 10 0 59986 62100.00000 0 -10643441.674 -12330328.575 19638918.826 10 0 59986 63000.00000 0 -8193300.625 -11777450.085 21098147.287 10 0 59986 63900.00000 0 -5556780.229 -11380689.659 22147920.109 10 0 59986 64800.00000 0 -2796021.191 -11166451.887 22767837.882 10 0 59986 65700.00000 0 22218.443 -11149903.516 22945831.587 10 0 59986 66600.00000 0 2829090.532 -11334302.580 22678398.463 10 0 59986 67500.00000 0 5556270.434 -11710845.307 21970673.382 10 0 59986 68400.00000 0 8138549.550 -12259037.564 20836334.110 10 0 59986 69300.00000 0 10516300.071 -12947575.716 19297341.829 10 0 59986 70200.00000 0 12637710.345 -13735700.483 17383521.335 10 0 59986 71100.00000 0 14460698.606 -14574967.383 15131988.294 10 0 59986 72000.00000 0 15954425.846 -15411359.790 12586433.941 10 0 59986 72900.00000 0 17100345.241 -16187655.858 9796280.447 10 0 59986 73800.00000 0 17892744.708 -16845949.681 6815722.855 10 0 59986 74700.00000 0 18338760.338 -17330220.068 3702675.992 10 0 59986 75600.00000 0 18457860.684 -17588838.075 517646.867 10 0 59986 76500.00000 0 18280824.244 -17576906.646 -2677445.238 10 0 59986 77400.00000 0 17848253.924 -17258332.622 -5820477.478 10 0 59986 78300.00000 0 17208691.937 -16607542.585 -8850336.739 10 0 59986 79200.00000 0 16416415.564 -15610768.979 -11708113.236 10 0 59986 80100.00000 0 15529007.684 -14266851.208 -14338250.429 10 0 59986 81000.00000 0 14604805.455 -12587516.934 -16689628.388 10 0 59986 81900.00000 0 13700335.498 -10597130.781 -18716559.179 10 0 59986 82800.00000 0 12867844.277 -8331920.201 -20379674.789 10 0 59986 83700.00000 0 12153028.064 -5838710.180 -21646690.501 10 0 59986 84600.00000 0 11593058.185 -3173219.005 -22493029.195 10 0 59986 85500.00000 0 11214984.494 -397985.636 -22902294.931 10 0 59987 0.00000 0 11034583.958 2419985.338 -22866587.166 10 0 59987 900.00000 0 11055702.241 5211765.320 -22386649.919 10 0 59987 1800.00000 0 11270115.703 7909121.129 -21471853.538 10 0 59987 2700.00000 0 11657918.793 10447109.152 -20140009.657 10 0 59987 3600.00000 0 12188420.412 12766533.528 -18417022.952 10 0 59987 4500.00000 0 12821511.081 14816168.506 -16336386.551 10 0 59987 5400.00000 0 13509443.106 16554653.288 -13938530.690 10 0 59987 6300.00000 0 14198948.598 17951981.435 -11270037.106 10 0 59987 7200.00000 0 14833605.939 18990523.775 -8382734.229 10 0 59987 8100.00000 0 15356354.764 19665543.209 -5332690.643 10 0 59987 9000.00000 0 15712053.209 19985181.014 -2179126.285 10 0 59987 9900.00000 0 15849969.291 19969916.306 1016737.350 10 0 59987 10800.00000 0 15726101.014 19651522.454 4192865.564 10 0 59987 11700.00000 0 15305226.927 19071565.236 7287614.120 10 0 59987 12600.00000 0 14562600.216 18279506.763 10240924.639 10 0 59987 13500.00000 0 13485214.382 17330495.593 12995488.444 10 0 59987 14400.00000 0 12072586.514 16282936.511 15497856.275 10 0 59987 15300.00000 0 10337024.450 15195942.486 17699472.480 10 0 59987 16200.00000 0 8303365.645 14126776.039 19557613.909 10 0 59987 17100.00000 0 6008197.567 13128387.458 21036215.739 10 0 59987 18000.00000 0 3498591.008 12247153.042 22106568.664 10 0 59987 18900.00000 0 830397.858 11520908.016 22747874.413 10 0 59987 19800.00000 0 -1933817.151 10977356.322 22947649.246 10 0 59987 20700.00000 0 -4727125.988 10632923.729 22701967.791 10 0 59987 21600.00000 0 -7480771.855 10492102.168 22015542.556 10 0 59987 22500.00000 0 -10126784.624 10547312.761 20901637.350 10 0 59987 23400.00000 0 -12600569.545 10779293.360 19381815.838 10 0 59987 24300.00000 0 -14843362.527 11157994.492 17485529.500 10 0 59987 25200.00000 0 -16804450.575 11643946.303 15249552.214 10 0 59987 26100.00000 0 -18443065.357 12190039.192 12717271.715 10 0 59987 27000.00000 0 -19729871.316 12743643.258 9937850.994 10 0 59987 27900.00000 0 -20647986.445 13248977.176 6965275.412 10 0 59987 28800.00000 0 -21193493.221 13649626.255 3857303.819 10 0 59987 29700.00000 0 -21375418.622 13891102.833 674344.066 10 0 59987 30600.00000 0 -21215184.430 13923340.094 -2521724.930 10 0 59987 31500.00000 0 -20745551.474 13703012.923 -5668761.107 10 0 59987 32400.00000 0 -20009102.909 13195586.653 -8705572.983 10 0 59987 33300.00000 0 -19056331.167 12377005.955 -11573114.848 10 0 59987 34200.00000 0 -17943410.041 11234951.414 -14215639.432 10 0 59987 35100.00000 0 -16729746.550 9769609.642 -16581785.081 10 0 59987 36000.00000 0 -15475416.465 7993923.420 -18625575.944 10 0 59987 36900.00000 0 -14238591.994 5933310.374 -20307315.602 10 0 59987 37800.00000 0 -13073070.201 3624861.061 -21594356.882 10 0 59987 38700.00000 0 -12026006.146 1116049.202 -22461733.262 10 0 59987 39600.00000 0 -11135945.806 -1536992.811 -22892640.039 10 0 59987 40500.00000 0 -10431240.953 -4271561.933 -22878756.454 10 0 59987 41400.00000 0 -9928911.920 -7020749.770 -22420403.034 10 0 59987 42300.00000 0 -9634005.233 -9715987.453 -21526531.516 10 0 59987 43200.00000 0 -9539472.283 -12289664.984 -20214547.831 10 0 59987 44100.00000 0 -9626573.313 -14677716.940 -18509971.704 10 0 59987 45000.00000 0 -9865788.998 -16822067.734 -16445939.472 10 0 59987 45900.00000 0 -10218200.625 -18672835.515 -14062559.641 10 0 59987 46800.00000 0 -10637280.187 -20190203.741 -11406133.485 10 0 59987 47700.00000 0 -11071014.511 -21345883.190 -8528255.685 10 0 59987 48600.00000 0 -11464273.425 -22124104.279 -5484812.301 10 0 59987 49500.00000 0 -11761321.671 -22522099.071 -2334895.512 10 0 59987 50400.00000 0 -11908368.141 -22550053.697 860343.723 10 0 59987 51300.00000 0 -11856044.423 -22230534.093 4038882.687 10 0 59987 52200.00000 0 -11561707.561 -21597409.985 7139030.352 10 0 59987 53100.00000 0 -10991469.358 -20694323.106 10100623.717 10 0 59987 54000.00000 0 -10121866.049 -19572764.614 12866193.694 10 0 59987 54900.00000 0 -8941097.334 -18289842.970 15382077.927 10 0 59987 55800.00000 0 -7449781.802 -16905836.331 17599459.093 10 0 59987 56700.00000 0 -5661196.081 -15481632.302 19475308.821 10 0 59987 57600.00000 0 -3600986.556 -14076162.347 20973219.387 10 0 59987 58500.00000 0 -1306364.469 -12743938.163 22064107.474 10 0 59987 59400.00000 0 1175183.328 -11532792.829 22726776.879 10 0 59987 60300.00000 0 3787615.704 -10481920.855 22948329.645 10 0 59987 61200.00000 0 6468420.377 -9620298.674 22724417.881 10 0 59987 62100.00000 0 9150973.651 -8965551.246 22059331.431 10 0 59987 63000.00000 0 11767079.957 -8523311.858 20965919.469 10 0 59987 63900.00000 0 14249586.756 -8287101.644 19465347.121 10 0 59987 64800.00000 0 16534967.009 -8238733.702 17586691.191 10 0 59987 65700.00000 0 18565762.475 -8349224.736 15366382.090 10 0 59987 66600.00000 0 20292786.473 -8580175.803 12847502.047 10 0 59987 67500.00000 0 21676994.526 -8885563.946 10078952.551 10 0 59987 68400.00000 0 22690944.844 -9213868.984 7114506.653 10 0 59987 69300.00000 0 23319787.575 -9510445.340 4011764.322 10 0 59987 70200.00000 0 23561741.417 -9720038.200 831031.139 10 0 59987 71100.00000 0 23428037.709 -9789336.852 -2365857.570 10 0 59987 72000.00000 0 22942334.582 -9669456.336 -5516743.761 10 0 59987 72900.00000 0 22139626.200 -9318241.320 -8560360.713 10 0 59987 73800.00000 0 21064693.518 -8702293.661 -11437529.714 10 0 59987 74700.00000 0 19770162.390 -7798636.728 -14092315.408 10 0 59987 75600.00000 0 18314251.432 -6595945.054 -16473116.730 10 0 59987 76500.00000 0 16758305.024 -5095286.313 -18533671.897 10 0 59987 77400.00000 0 15164215.693 -3310343.318 -20233957.706 10 0 59987 78300.00000 0 13591844.503 -1267105.703 -21540965.822 10 0 59987 79200.00000 0 12096547.820 996956.734 -22429341.268 10 0 59987 80100.00000 0 10726914.029 3434205.284 -22881871.181 10 0 59987 81000.00000 0 9522804.606 5988574.234 -22889814.861 10 0 59987 81900.00000 0 8513780.923 8597671.566 -22453069.243 10 0 59987 82800.00000 0 7717981.828 11195151.646 -21580166.989 10 0 59987 83700.00000 0 7141497.973 13713261.883 -20288107.544 10 0 59987 84600.00000 0 6778268.052 16085458.073 -18602024.549 10 0 59987 85500.00000 0 6610500.207 18248980.250 -16554696.091 10 0 59988 0.00000 0 6609599.862 20147282.305 -14185907.371 10 0 59988 900.00000 0 6737564.069 21732215.725 -11541676.658 10 0 59988 1800.00000 0 6948782.784 22965874.549 -8673362.641 10 0 59988 2700.00000 0 7192170.458 23822028.474 -5636666.150 10 0 59988 3600.00000 0 7413537.407 24287082.287 -2490548.662 10 0 59988 4500.00000 0 7558100.289 24360523.148 703912.506 10 0 59988 5400.00000 0 7573025.121 24054837.492 3884709.778 10 0 59988 6300.00000 0 7409894.933 23394901.672 6990108.485 10 0 59988 7200.00000 0 7026997.322 22416872.528 9959844.039 10 0 59988 8100.00000 0 6391334.800 21166624.950 12736289.791 10 0 59988 9000.00000 0 5480272.513 19697802.394 15265572.907 10 0 59988 9900.00000 0 4282753.188 18069562.366 17498616.743 10 0 59988 10800.00000 0 2800027.342 16344111.451 19392089.781 10 0 59988 11700.00000 0 1045867.023 14584132.984 20909243.156 10 0 59988 12600.00000 0 -953747.037 12850214.743 22020620.983 10 0 59988 13500.00000 0 -3161453.141 11198383.781 22704630.209 10 0 59988 14400.00000 0 -5529818.105 9677850.832 22947959.361 10 0 59988 15300.00000 0 -8003075.365 8329057.925 22745838.291 10 0 59988 16200.00000 0 -10519220.816 7182110.104 22102133.956 10 0 59988 17100.00000 0 -13012380.543 6255656.170 21029280.170 10 0 59988 18000.00000 0 -15415353.111 5556264.698 19548042.255 10 0 59988 18900.00000 0 -17662221.634 5078320.960 17687120.561 10 0 59988 19800.00000 0 -19690927.597 4804448.662 15482599.766 10 0 59988 20700.00000 0 -21445699.573 4706438.446 12977253.923 10 0 59988 21600.00000 0 -22879235.730 4746643.743 10219720.029 10 0 59988 22500.00000 0 -23954548.918 4879784.820 7263555.631 10 0 59988 23400.00000 0 -24646396.952 5055084.448 4166198.517 10 0 59988 24300.00000 0 -24942237.980 5218644.375 987848.697 10 0 59988 25200.00000 0 -24842670.645 5315961.390 -2209705.337 10 0 59988 26100.00000 0 -24361340.480 5294475.622 -5364292.692 10 0 59988 27000.00000 0 -23524316.525 5106042.172 -8414574.386 10 0 59988 27900.00000 0 -22368964.604 4709220.391 -11301241.511 10 0 59988 28800.00000 0 -20942365.023 4071282.767 -13968173.205 10 0 59988 29700.00000 0 -19299341.687 3169857.387 -16363531.314 10 0 59988 30600.00000 0 -17500185.939 1994133.473 -18440770.100 10 0 59988 31500.00000 0 -15608171.197 545578.140 -20159541.170 10 0 59988 32400.00000 0 -13686962.896 -1161866.823 -21486476.171 10 0 59988 33300.00000 0 -11798032.450 -3102117.353 -22395832.339 10 0 59988 34200.00000 0 -9998183.323 -5237795.653 -22869988.835 10 0 59988 35100.00000 0 -8337292.341 -7521560.218 -22899784.732 10 0 59988 36000.00000 0 -6856359.960 -9897862.572 -22484692.639 10 0 59988 36900.00000 0 -5585950.109 -12305058.176 -21632825.007 10 0 59988 37800.00000 0 -4545083.712 -14677784.180 -20360773.289 10 0 59988 38700.00000 0 -3740630.947 -16949505.644 -18693283.236 10 0 59988 39600.00000 0 -3167226.356 -19055124.680 -16662772.612 10 0 59988 40500.00000 0 -2807709.091 -20933544.339 -14308700.595 10 0 59988 41400.00000 0 -2634068.543 -22530080.811 -11676800.899 10 0 59988 42300.00000 0 -2608854.462 -23798623.681 -8818193.349 10 0 59988 43200.00000 0 -2686991.181 -24703454.406 -5788391.040 10 0 59988 44100.00000 0 -2817918.564 -25220647.377 -2646222.261 10 0 59988 45000.00000 0 -2947968.553 -25338995.276 547311.755 10 0 59988 45900.00000 0 -3022876.302 -25060420.397 3730220.975 10 0 59988 46800.00000 0 -2990319.182 -24399855.060 6840729.432 10 0 59988 47700.00000 0 -2802375.863 -23384596.536 9818473.244 10 0 59988 48600.00000 0 -2417801.075 -22053163.861 12605670.420 10 0 59988 49500.00000 0 -1804019.469 -20453704.708 15148239.774 10 0 59988 50400.00000 0 -938753.906 -18642019.233 17396847.320 10 0 59988 51300.00000 0 188781.125 -16679283.585 19307860.175 10 0 59988 52200.00000 0 1577172.038 -14629568.128 20844189.871 10 0 59988 53100.00000 0 3212615.333 -12557253.740 21976009.199 10 0 59988 54000.00000 0 5069252.667 -10524453.559 22681329.179 10 0 59988 54900.00000 0 7110019.140 -8588547.055 22946425.402 10 0 59988 55800.00000 0 9287970.821 -6799928.606 22766105.701 10 0 59988 56700.00000 0 11548037.578 -5200063.622 22143814.053 10 0 59988 57600.00000 0 13829129.609 -3819932.539 21091568.495 10 0 59988 58500.00000 0 16066511.106 -2678926.878 19629733.830 10 0 59988 59400.00000 0 18194343.255 -1784242.806 17786632.931 10 0 59988 60300.00000 0 20148291.334 -1130796.938 15598003.433 10 0 59988 61200.00000 0 21868087.615 -701667.337 13106309.599 10 0 59988 62100.00000 0 23299943.225 -469040.652 10359922.006 10 0 59988 63000.00000 0 24398708.074 -395624.985 7412180.451 10 0 59988 63900.00000 0 25129688.072 -436468.361 4320358.002 10 0 59988 64800.00000 0 25470043.102 -541105.365 1144546.295 10 0 59988 65700.00000 0 25409706.606 -655940.424 -2053516.004 10 0 59988 66600.00000 0 24951787.791 -726766.023 -5211648.244 10 0 59988 67500.00000 0 24112439.260 -701308.265 -8268442.260 10 0 59988 68400.00000 0 22920195.517 -531690.929 -11164461.909 10 0 59988 69300.00000 0 21414810.225 -176712.652 -13843403.572 10 0 59988 70200.00000 0 19645641.237 396160.212 -16253194.487 10 0 59988 71100.00000 0 17669651.491 1209170.299 -18347007.144 10 0 59988 72000.00000 0 15549109.938 2273085.039 -20084169.845 10 0 59988 72900.00000 0 13349089.051 3586502.368 -21430955.805 10 0 59988 73800.00000 0 11134863.729 5135676.465 -22361235.781 10 0 59988 74700.00000 0 8969320.260 6894871.615 -22856981.971 10 0 59988 75600.00000 0 6910483.178 8827230.170 -22908613.929 10 0 59988 76500.00000 0 5009262.626 10886119.020 -22515180.320 10 0 59988 77400.00000 0 3307515.348 13016898.960 -21684373.400 10 0 59988 78300.00000 0 1836499.132 15159043.723 -20432376.276 10 0 59988 79200.00000 0 615783.908 17248520.857 -18783546.044 10 0 59988 80100.00000 0 -347336.356 19220335.547 -16769938.993 10 0 59988 81000.00000 0 -1057907.828 21011131.726 -14430686.952 10 0 59988 81900.00000 0 -1532855.835 22561742.201 -11811236.716 10 0 59988 82800.00000 0 -1800019.420 23819581.533 -8962467.174 10 0 59988 83700.00000 0 -1896723.344 24740781.850 -5939701.096 10 0 59988 84600.00000 0 -1867948.758 25291982.382 -2801630.752 10 0 59988 85500.00000 0 -1764180.710 25451697.935 390821.725 10 0 59989 0.00000 0 -1639024.146 25211209.126 3575686.677 10 0 59989 900.00000 0 -1546689.783 24574937.010 6691150.549 10 0 59989 1800.00000 0 -1539456.838 23560286.913 9676752.952 10 0 59989 2700.00000 0 -1665220.082 22196967.727 12474559.511 10 0 59989 3600.00000 0 -1965225.477 20525815.420 15030283.463 10 0 59989 4500.00000 0 -2472090.350 18597169.980 17294336.060 10 0 59989 5400.00000 0 -3208192.124 16468873.500 19222785.395 10 0 59989 6300.00000 0 -4184494.066 14203972.769 20778205.499 10 0 59989 7200.00000 0 -5399858.244 11868221.844 21930399.659 10 0 59989 8100.00000 0 -6840875.460 9527488.139 22656984.487 10 0 59989 9000.00000 0 -8482220.476 7245169.375 22943823.802 10 0 59989 9900.00000 0 -10287518.909 5079728.189 22785304.182 10 0 59989 10800.00000 0 -12210690.933 3082446.121 22184446.933 10 0 59989 11700.00000 0 -14197717.049 1295489.658 21152854.115 10 0 59989 12600.00000 0 -16188753.456 -249631.965 19710489.263 10 0 59989 13500.00000 0 -18120509.849 -1533153.701 17885296.482 10 0 59989 14400.00000 0 -19928791.224 -2547641.740 15712664.525 10 0 59989 15300.00000 0 -21551098.027 -3298056.805 13234745.527 10 0 59989 16200.00000 0 -22929176.152 -3801291.732 10499640.891 10 0 59989 17100.00000 0 -24011409.999 -4085203.423 7560469.578 10 0 59989 18000.00000 0 -24754957.903 -4187180.602 4474336.614 10 0 59989 18900.00000 0 -25127539.847 -4152308.507 1301221.805 10 0 59989 19800.00000 0 -25108801.726 -4031208.829 -1897189.516 10 0 59989 20700.00000 0 -24691198.175 -3877647.147 -5058710.426 10 0 59989 21600.00000 0 -23880356.236 -3746010.049 -8121866.991 10 0 59989 22500.00000 0 -22694904.142 -3688759.796 -11027099.110 10 0 59989 23400.00000 0 -21165772.095 -3753975.299 -13717923.513 10 0 59989 24300.00000 0 -19334994.290 -3983084.493 -16142035.670 10 0 59989 25200.00000 0 -17254062.468 -4408884.960 -18252328.812 10 0 59989 26100.00000 0 -14981900.088 -5053937.279 -20007810.015 10 0 59989 27000.00000 0 -12582542.040 -5929399.685 -21374395.641 10 0 59989 27900.00000 0 -10122616.886 -7034353.852 -22325570.979 10 0 59989 28800.00000 0 -7668736.674 -8355650.800 -22842901.681 10 0 59989 29700.00000 0 -5284902.850 -9868284.036 -22916387.618 10 0 59989 30600.00000 0 -3030035.827 -11536274.877 -22544652.793 10 0 59989 31500.00000 0 -955730.355 -13314033.419 -21734968.065 10 0 59989 32400.00000 0 895670.841 -15148138.754 -20503106.567 10 0 59989 33300.00000 0 2492606.102 -16979464.494 -18873034.775 10 0 59989 34200.00000 0 3815364.140 -18745561.143 -16876445.245 10 0 59989 35100.00000 0 4856650.425 -20383196.099 -14552139.987 10 0 59989 36000.00000 0 5621628.522 -21830945.321 -11945276.264 10 0 59989 36900.00000 0 6127436.097 -23031728.386 -9106489.291 10 0 59989 37800.00000 0 6402197.385 -23935180.900 -6090908.751 10 0 59989 38700.00000 0 6483574.930 -24499764.892 -2957088.124 10 0 59989 39600.00000 0 6416922.791 -24694528.661 234132.273 10 0 59989 40500.00000 0 6253120.067 -24500442.217 3420806.361 10 0 59989 41400.00000 0 6046177.065 -23911252.189 6541084.368 10 0 59989 42300.00000 0 5850715.871 -22933820.222 9534412.347 10 0 59989 43200.00000 0 5719432.303 -21587930.546 12342705.747 10 0 59989 44100.00000 0 5700646.873 -19905574.585 14911474.248 10 0 59989 45000.00000 0 5836048.495 -17929742.295 17190876.125 10 0 59989 45900.00000 0 6158726.483 -15712770.479 19136681.989 10 0 59989 46800.00000 0 6691574.119 -13314316.548 20711129.623 10 0 59989 47700.00000 0 7446131.522 -10799041.717 21883653.773 10 0 59989 48600.00000 0 8421917.061 -8234099.474 22631477.292 10 0 59989 49500.00000 0 9606276.228 -5686532.985 22940052.569 10 0 59989 50400.00000 0 10974755.285 -3220688.882 22803344.976 10 0 59989 51300.00000 0 12491985.174 -895753.964 22223952.921 10 0 59989 52200.00000 0 14113039.889 1236483.678 21213061.999 10 0 59989 53100.00000 0 15785213.693 3133556.908 19790233.760 10 0 59989 54000.00000 0 17450143.909 4763845.974 17983032.586 10 0 59989 54900.00000 0 19046191.393 6107646.320 15826497.167 10 0 59989 55800.00000 0 20510979.649 7157733.916 13362466.087 10 0 59989 56700.00000 0 21783986.547 7919405.179 10638769.898 10 0 59989 57600.00000 0 22809079.960 8409990.531 7708304.785 10 0 59989 58500.00000 0 23536890.583 8657862.738 4628005.529 10 0 59989 59400.00000 0 23926921.657 8700982.564 1457737.656 10 0 59989 60300.00000 0 23949306.196 8585043.910 -1740869.472 10 0 59989 61200.00000 0 23586136.913 8361297.676 -4905625.427 10 0 59989 62100.00000 0 22832312.085 8084147.318 -7974993.304 10 0 59989 63000.00000 0 21695860.996 7808618.831 -10889291.796 10 0 59989 63900.00000 0 20197734.652 7587813.220 -13591860.579 10 0 59989 64800.00000 0 18371070.089 7470450.184 -16030165.768 10 0 59989 65700.00000 0 16259958.823 7498607.788 -18156823.512 10 0 59989 66600.00000 0 13917770.877 7705754.368 -19930521.608 10 0 59989 67500.00000 0 11405104.386 8115156.412 -21316821.286 10 0 59989 68400.00000 0 8787446.313 8738730.064 -22288823.865 10 0 59989 69300.00000 0 6132641.715 9576385.050 -22827689.724 10 0 59989 70200.00000 0 3508276.698 10615889.015 -22923000.069 10 0 59989 71100.00000 0 979083.478 11833258.303 -22572954.959 10 0 59989 72000.00000 0 -1395525.116 13193659.138 -21784404.228 10 0 59989 72900.00000 0 -3563690.071 14652781.736 -20572711.011 10 0 59989 73800.00000 0 -5483017.677 16158630.125 -18961450.709 10 0 59989 74700.00000 0 -7122089.718 17653652.959 -16981951.263 10 0 59989 75600.00000 0 -8461510.804 19077126.335 -14672683.565 10 0 59989 76500.00000 0 -9494450.620 20367688.955 -12078513.655 10 0 59989 77400.00000 0 -10226659.882 21465923.456 -9249831.064 10 0 59989 78300.00000 0 -10675960.821 22316875.648 -6241570.090 10 0 59989 79200.00000 0 -10871235.001 22872405.887 -3112142.914 10 0 59989 80100.00000 0 -10850952.302 23093273.698 77694.640 10 0 59989 81000.00000 0 -10661304.174 22950867.878 3266022.568 10 0 59989 81900.00000 0 -10354020.823 22428509.168 6390958.290 10 0 59989 82800.00000 0 -9983965.242 21522270.467 9391856.867 10 0 59989 83700.00000 0 -9606606.229 20241279.823 12210486.388 10 0 59989 84600.00000 0 -9275477.527 18607493.081 14792155.725 10 0 59989 85500.00000 0 -9039730.621 16654945.256 17086772.839 99